World > North America > United States > Alabama

Green Pond, Alabama Regional Weather

Lat: 33.23N, Lon: 87.13W
Wx Zone: ALZ034
Feedback

Green Pond, AL Regional Weather

Expires:202006010800;;074651
ASUS44 KBMX 010710
RWRAL 
             
ALABAMA REGIONAL WEATHER ROUNDUP
NATIONAL WEATHER SERVICE BIRMINGHAM AL
200 AM CDT MON JUN 01 2020

NOTE: "FAIR" INDICATES FEW OR NO CLOUDS BELOW 12,000 FEET
WITH NO SIGNIFICANT WEATHER AND/OR OBSTRUCTIONS TO VISIBILITY.

THE REMARK "TC" DENOTES TEMPERATURE IN DEGREES CELSIUS.


ALZ015-024>026-033>036-041>044-010800-
CENTRAL ALABAMA
  
CITY           SKY/WX    TMP DP  RH WIND       PRES   REMARKS
BIRMINGHAM     PTCLDY    67  51  56 E5        30.17S                  
MONTGOMERY     PTCLDY    69  59  70 N6        30.10S                  
SHELBY CO ARPT PTCLDY    68  53  58 CALM      30.14R                  
MAXWELL AFB    PTCLDY    69  60  72 N6        30.10S                  
GREENVILLE     FAIR      70  57  63 NE6       30.09                   
SELMA          FAIR      68  59  73 NE5       30.10S                  
PRATTVILLE     FAIR      69  55  61 NE5       30.10S                  
BESSEMER       FAIR      68  53  58 NE6       30.15S                  
TALLADEGA      FAIR      59  56  91 CALM      30.15F                  
PELL CITY      SUNNY     59  59 100 CALM      30.16S                  
MARION         NOT AVBL                                               
SYLACAUGA      CLOUDY    63  58  85 CALM      30.14F                  
$$
 

SKY/WX - Weather  TMP - Temperature  DP - Dew Point  RH - Relative Humidity
WIND - Wind Direction/Speed PRES - Barometric Pressure VSB - Visibility
WCI - Wind Chill Index E13G22 Wind - East Wind 13 mph/Gusts of 22 mph
Green Pond Weather Map
UTC Time: 6/1/2020, 07:54
Your Time: